Location: Ch?enovice
(49.7164°N, 15.2160°E)
Time: 17:11:55
(UTC+00:00)

Cosmos 1745 Rocket - Pass Details

Date: 23 May 2024
Orbit: 953 x 996 km, 83.0° (Epoch: 12 June)

Event Time Altitude Azimuth Distance (km) Brightness Sun altitude
Exits shadow 00:48:37 21° 192° (SSW) 2,016 5.1 -15.3°
Maximum altitude 00:52:57 83° 279° (W) 990 4.0 -15.0°
Drops below altitude 10° 00:59:17 10° 8° (N) 2,751 7.5 -14.5°
Sets 01:01:50 0° 10° (N) 3,710 8.4 -14.3°
